OBJECT B, 61239

Orbit data source: Space-Track

You're viewing an Uncataloged Satellite

Recently launched and/or uncataloged satellites may have evolving metadata. Metadata may include but not limited to: Owner, Maufacturer, Bus, Motor, and Mission.

OBJECT B, 61239 is a Chinese satellite in SSO that was launched on Tue, 24 Sep 2024 UTC via a LIJIAN-1 launch vehicle from the Jiuquan Satellite Launch Center, China (JSC). Unknown objects in Earth's orbit typically refer to objects detected orbiting the Earth but have not yet been identified or cataloged. These objects could be anything from previously untracked satellites, spent rocket stages, debris from satellite collisions, or even natural meteoroids temporarily captured by Earth's gravity.

Loading next visibility...
Identifier
61239, 2024-174B
Orbit
SSO
Country
Flag of CNCN / PRC
Related business
None
Manufacturer
Unknown
Mission
Operational Commercial Radar Imaging
Bus & Motor
Unknown
Mass
Unknown
Launch date (UTC)
2024-09-24 (2 years ago)
Launch vehicle
LIJIAN-1
Launch site
Jiuquan Satellite Launch Center, China (JSC)
Object type
Unknown
Shape & HBR
Box + 3 Pan, 3.0 m
Radar Cross Section
3.533 m², Medium (>0.1 m² and < 1m²)

Expand to show TLE details & history
Last TLE update: 11 hours ago

TLE from 11 hours ago
0 OBJECT B
1 61239U 24174B   26171.50038204  .00002694  00000-0  16806-3 0  9993
2 61239  97.4480 174.8374 0019205 278.1507  81.7544 15.10209847 95893
Epoch: 2026-06-20T12:00Z
TLE epoch observation values (Epoch: 2026-06-20T12:00:33.008Z)
Latitude
-0.00003°
Longitude
85.98576°
Altitude
536.756 km
Speed
7.595 km/s
True Right ascension
11h 39m 20s
True Declination
0° 00' 00"
Sunlit
Object was in daylight at epoch
Visualization orbit readout
Latitude
Unknown
Longitude
Unknown
Altitude
Unknown
Speed
Unknown
Apparent Right ascension
Unknown
Apparent Declination
Unknown
Sunlit
N/A
Visualization observer readout
Local Sidereal Time
10:19:00
Azimuth
Unknown
Elevation
Unknown
Doppler factor
Unknown
Orbital elements
Apogee altitude
545.812 km
Perigee altitude
519.268 km
Semi-major axis
6,910.677 km
Eccentricity
0.00192
Inclination
97.448°
RAAN
174.8374°
Arg. of periapsis
278.1507°
True anomaly
81.97227°
Mean anomaly
81.7544°
Eccentric anomaly
81.86333°
Mean motion
3.778 °/min
Orbital period
95.29 mins
BSTAR
0.00016806
Loading maneuver chart data...
Computing Atmospheric mass density...
Loading historical data...
Loading historical data...
Loading historical data...
Loading historical data...
Loading historical data...
Loading historical data...
Loading historical data...

Documentation

Showing up to 5 results
|